Starlink 32107

operational
NORAD ID: 59694 Int'l Des: 2024-086 Owner: SPXS Country: US Constellation: starlink
LEOCIRCULAR

Über Starlink 32107

Beschreibung wird geladen...

Live-Position

3D-Globus wird geladen...

Nächste Überflüge

Höhenverlauf

Altitude vs Time

uPlot chart will show altitude changes over time

Zweizeiliger Elementsatz

1 59694U 24086N 25350.22037986 .00001340 00000-0 58214-4 0 9997
2 59694 43.0012 171.5423 0001168 271.9826 88.0892 15.27572740 91341
Epoch: 16. Dez. 2025 • Age: 20 hours

Aktueller Status

Höhe 483.0 km
Geschwindigkeit 7.63 km/s
Subsatellitenpunkt -2.05°S, 53.46°E
Startdatum 8. Mai 2024
Alter 1.6 years
Typ internet

Technische Details

Klassifizierung Payload
Masse 730.00 kg
Trockenmasse 700.00 kg
Gesamtmasse 730.00 kg
Länge 0.30 m
Durchmesser 4.10 m
Spannweite 29.00 m
Form Box + pan
Hersteller SPXS
Bus-Typ Starlink V2M
Phasenstatus In Orbit
Besitzer/Staat SPXS/US

Große Konstellationen

Loading constellations...